,,,PA_Meas_PMT16A,,PR_Meas_QMR101_102,,RH_Meas_QMH101,,SR_Meas_QMS101,,TA_Meas_QMH101,,GenWind,,GenWind,
date,time,status,PA,status,PR,status,RH,status,SR,status,TA,status,DirAvg,status,SpdAvg,
2010-11-22, 00:00:04,VALID,998.323,VALID,0,VALID,93.2111,VALID,0,VALID,23.1744,VALID,5,VALID,0,
2010-11-22, 00:01:04,VALID,998.308,VALID,0,VALID,93.2187,VALID,0,VALID,23.1549,VALID,5,VALID,0,
2010-11-22, 00:02:04,VALID,998.289,VALID,0,VALID,93.234,VALID,0,VALID,23.1549,VALID,5,VALID,0,
2010-11-22, 00:03:04,VALID,998.285,VALID,0,VALID,93.2416,VALID,0,VALID,23.1939,VALID,5,VALID,0,
2010-11-22, 00:04:04,VALID,998.296,VALID,0,VALID,93.2721,VALID,0,VALID,23.1939,VALID,5,VALID,0,
2010-11-22, 00:05:04,VALID,998.312,VALID,0,VALID,93.2568,VALID,0,VALID,23.2134,VALID,5,VALID,0.378125,
2010-11-22, 00:06:04,VALID,998.332,VALID,0,VALID,93.2874,VALID,0,VALID,23.2329,VALID,112,VALID,0.896875,
2010-11-22, 00:07:04,VALID,998.356,VALID,0,VALID,93.2874,VALID,0,VALID,23.2915,VALID,113,VALID,0.964453,
2010-11-22, 00:08:04,VALID,998.323,VALID,0,VALID,93.3103,VALID,0,VALID,23.2915,VALID,117,VALID,1.08828,
2010-11-22, 00:09:04,VALID,998.337,VALID,0,VALID,93.3026,VALID,0,VALID,23.3305,VALID,117,VALID,1.125,
2010-11-22, 00:10:04,VALID,998.307,VALID,0,VALID,93.3179,VALID,0,VALID,23.3305,VALID,117,VALID,1.02461,
2010-11-22, 00:11:04,VALID,998.297,VALID,0,VALID,93.3179,VALID,0,VALID,23.35,VALID,117,VALID,0.832812,
2010-11-22, 00:12:04,VALID,998.316,VALID,0,VALID,93.3331,VALID,0,VALID,23.3695,VALID,106,VALID,1.07813,
2010-11-22, 00:13:04,VALID,998.279,VALID,0,VALID,93.3331,VALID,0,VALID,23.3695,VALID,100,VALID,0.757813,
2010-11-22, 00:14:04,VALID,998.272,VALID,0,VALID,93.3484,VALID,0,VALID,23.3695,VALID,92,VALID,0.981641,
2010-11-22, 00:15:04,VALID,998.22,VALID,0,VALID,93.3179,VALID,0,VALID,23.35,VALID,90,VALID,0.825391,
2010-11-22, 00:16:04,VALID,998.253,VALID,0,VALID,93.356,VALID,0,VALID,23.311,VALID,83,VALID,0.84375,
2010-11-22, 00:17:04,VALID,998.202,VALID,0,VALID,93.3713,VALID,0,VALID,23.311,VALID,73,VALID,0.926562,
2010-11-22, 00:18:04,VALID,998.181,VALID,0,VALID,93.356,VALID,0,VALID,23.2719,VALID,73,VALID,0.735547,
2010-11-22, 00:19:04,VALID,998.172,VALID,0,VALID,93.3331,VALID,0,VALID,23.2524,VALID,73,VALID,0.842578,
2010-11-22, 00:20:04,VALID,998.169,VALID,0,VALID,93.356,VALID,0,VALID,23.2329,VALID,73,VALID,0.710547,
2010-11-22, 00:21:04,VALID,998.14,VALID,0,VALID,93.3255,VALID,0,VALID,23.2329,VALID,73,VALID,0.435547,
2010-11-22, 00:22:04,VALID,998.148,VALID,0,VALID,93.3484,VALID,0,VALID,23.2329,VALID,73,VALID,0.451953,
2010-11-22, 00:23:04,VALID,998.135,VALID,0,VALID,93.3484,VALID,0,VALID,23.1921,VALID,73,VALID,0.572266,
2010-11-22, 00:24:04,VALID,998.112,VALID,0,VALID,93.356,VALID,0,VALID,23.2134,VALID,73,VALID,0.475781,
2010-11-22, 00:25:04,VALID,998.055,VALID,0,VALID,93.3637,VALID,0,VALID,23.1939,VALID,73,VALID,0.337891,
2010-11-22, 00:26:04,VALID,998.024,VALID,0,VALID,93.3408,VALID,0,VALID,23.1744,VALID,73,VALID,0.296094,
2010-11-22, 00:27:04,VALID,997.975,VALID,0,VALID,93.3408,VALID,0,VALID,23.1744,VALID,73,VALID,0.340234,
2010-11-22, 00:28:04,VALID,997.984,VALID,0,VALID,93.356,VALID,0,VALID,23.1744,VALID,73,VALID,0.390625,
2010-11-22, 00:29:04,VALID,997.942,VALID,0,VALID,93.3331,VALID,0,VALID,23.1744,VALID,73,VALID,0.622266,
2010-11-22, 00:30:04,VALID,997.912,VALID,0,VALID,93.3331,VALID,0,VALID,23.1549,VALID,73,VALID,0.610937,
2010-11-22, 00:31:04,VALID,997.92,VALID,0,VALID,93.3484,VALID,0,VALID,23.1549,VALID,73,VALID,0.580859,
2010-11-22, 00:32:04,VALID,997.936,VALID,0,VALID,93.356,VALID,0,VALID,23.1549,VALID,73,VALID,0.557813,
2010-11-22, 00:33:04,VALID,997.924,VALID,0,VALID,93.3484,VALID,0,VALID,23.1549,VALID,73,VALID,0.637109,
2010-11-22, 00:34:04,VALID,997.891,VALID,0,VALID,93.356,VALID,0,VALID,23.1549,VALID,73,VALID,0.577344,
2010-11-22, 00:35:04,VALID,997.883,VALID,0,VALID,93.356,VALID,0,VALID,23.1744,VALID,73,VALID,0.539063,
2010-11-22, 00:36:04,VALID,997.856,VALID,0,VALID,93.3637,VALID,0,VALID,23.1744,VALID,73,VALID,0.553516,
2010-11-22, 00:37:04,VALID,997.828,VALID,0,VALID,93.3713,VALID,0,VALID,23.1744,VALID,73,VALID,0.525391,
2010-11-22, 00:38:04,VALID,997.804,VALID,0,VALID,93.3484,VALID,0,VALID,23.1744,VALID,73,VALID,0.658984,
2010-11-22, 00:39:04,VALID,997.761,VALID,0,VALID,93.3866,VALID,0,VALID,23.1549,VALID,62,VALID,0.730469,
2010-11-22, 00:40:04,VALID,997.743,VALID,0,VALID,93.3866,VALID,0,VALID,23.1744,VALID,62,VALID,0.903906,
2010-11-22, 00:41:04,VALID,997.741,VALID,0,VALID,93.3942,VALID,0,VALID,23.1744,VALID,62,VALID,0.861719,
2010-11-22, 00:42:04,VALID,997.755,VALID,0,VALID,93.3637,VALID,0,VALID,23.1939,VALID,62,VALID,0.790234,
2010-11-22, 00:43:04,VALID,997.717,VALID,0,VALID,93.3713,VALID,0,VALID,23.1921,VALID,68,VALID,0.892578,
2010-11-22, 00:44:04,VALID,997.705,VALID,0,VALID,93.3866,VALID,0,VALID,23.1939,VALID,71,VALID,0.875,
2010-11-22, 00:45:04,VALID,997.685,VALID,0,VALID,93.3713,VALID,0,VALID,23.1939,VALID,76,VALID,0.683594,
2010-11-22, 00:46:04,VALID,997.703,VALID,0,VALID,93.3942,VALID,0,VALID,23.1726,VALID,76,VALID,0.791016,
2010-11-22, 00:47:04,VALID,997.656,VALID,0,VALID,93.3789,VALID,0,VALID,23.1939,VALID,76,VALID,0.552734,
2010-11-22, 00:48:04,VALID,997.647,VALID,0,VALID,93.3866,VALID,0,VALID,23.1939,VALID,77,VALID,0.642969,
2010-11-22, 00:49:04,VALID,997.637,VALID,0,VALID,93.3637,VALID,0,VALID,23.1531,VALID,79,VALID,0.644141,
2010-11-22, 00:50:04,VALID,997.625,VALID,0,VALID,93.4018,VALID,0,VALID,23.1744,VALID,98,VALID,0.853906,
2010-11-22, 00:51:04,VALID,997.619,VALID,0,VALID,93.3713,VALID,0,VALID,23.1549,VALID,98,VALID,0.798047,
2010-11-22, 00:52:04,VALID,997.609,VALID,0,VALID,93.3789,VALID,0,VALID,23.1336,VALID,99,VALID,0.801953,
2010-11-22, 00:53:04,VALID,997.628,VALID,0,VALID,93.3866,VALID,0,VALID,23.1549,VALID,117,VALID,0.840625,
2010-11-22, 00:54:04,VALID,997.605,VALID,0,VALID,93.3942,VALID,0,VALID,23.1354,VALID,117,VALID,0.846875,
2010-11-22, 00:55:04,VALID,997.618,VALID,0,VALID,93.3942,VALID,0,VALID,23.1141,VALID,117,VALID,0.647266,
2010-11-22, 00:56:04,VALID,997.593,VALID,0,VALID,93.3866,VALID,0,VALID,23.1141,VALID,127,VALID,0.739453,
2010-11-22, 00:57:04,VALID,997.636,VALID,0,VALID,93.356,VALID,0,VALID,23.1141,VALID,127,VALID,0.538672,
2010-11-22, 00:58:04,VALID,997.61,VALID,0,VALID,93.3713,VALID,0,VALID,23.1141,VALID,127,VALID,0.36875,
2010-11-22, 00:59:04,VALID,997.575,VALID,0,VALID,93.3942,VALID,0,VALID,23.1354,VALID,127,VALID,0.498047,
2010-11-22, 01:00:04,VALID,997.563,VALID,0,VALID,93.356,VALID,0,VALID,23.1141,VALID,127,VALID,0.264062,
2010-11-22, 01:01:04,VALID,997.559,VALID,0,VALID,93.3866,VALID,0,VALID,23.0946,VALID,127,VALID,0.332422,
2010-11-22, 01:02:04,VALID,997.537,VALID,0,VALID,93.3789,VALID,0,VALID,23.1141,VALID,126,VALID,0.755469,
2010-11-22, 01:03:04,VALID,997.524,VALID,0,VALID,93.3637,VALID,0,VALID,23.0946,VALID,126,VALID,0.753906,
2010-11-22, 01:04:04,VALID,997.537,VALID,0,VALID,93.3637,VALID,0,VALID,23.1141,VALID,126,VALID,0.707031,
2010-11-22, 01:05:04,VALID,997.519,VALID,0,VALID,93.3637,VALID,0,VALID,23.1159,VALID,126,VALID,0.892578,
2010-11-22, 01:06:04,VALID,997.523,VALID,0,VALID,93.356,VALID,0,VALID,23.1354,VALID,126,VALID,0.765625,
2010-11-22, 01:07:04,VALID,997.499,VALID,0,VALID,93.3484,VALID,0,VALID,23.1141,VALID,126,VALID,0.776172,
2010-11-22, 01:08:04,VALID,997.537,VALID,0,VALID,93.3331,VALID,0,VALID,23.1549,VALID,129,VALID,0.898047,
2010-11-22, 01:09:04,VALID,997.544,VALID,0,VALID,93.356,VALID,0,VALID,23.1744,VALID,129,VALID,0.874609,
2010-11-22, 01:10:04,VALID,997.527,VALID,0,VALID,93.3637,VALID,0.112286,VALID,23.1531,VALID,133,VALID,0.726172,
2010-11-22, 01:11:04,VALID,997.502,VALID,0,VALID,93.3408,VALID,0,VALID,23.1726,VALID,135,VALID,0.751172,
2010-11-22, 01:12:04,VALID,997.508,VALID,0,VALID,93.3484,VALID,0,VALID,23.2117,VALID,152,VALID,0.782812,
2010-11-22, 01:13:04,VALID,997.491,VALID,0,VALID,93.3331,VALID,0,VALID,23.2117,VALID,154,VALID,0.743359,
2010-11-22, 01:14:04,VALID,997.486,VALID,0,VALID,93.3408,VALID,0,VALID,23.2329,VALID,147,VALID,1.06289,
2010-11-22, 01:15:04,VALID,997.456,VALID,0,VALID,93.3408,VALID,0,VALID,23.2117,VALID,152,VALID,1.08281,
2010-11-22, 01:16:04,VALID,997.479,VALID,0,VALID,93.3179,VALID,0,VALID,23.1921,VALID,147,VALID,1.0207,
2010-11-22, 01:17:04,VALID,997.461,VALID,0,VALID,93.3255,VALID,0,VALID,23.1921,VALID,147,VALID,1.16758,
2010-11-22, 01:18:04,VALID,997.455,VALID,0,VALID,93.3408,VALID,0,VALID,23.2117,VALID,149,VALID,0.964453,
2010-11-22, 01:19:04,VALID,997.452,VALID,0,VALID,93.3026,VALID,0,VALID,23.2134,VALID,149,VALID,0.735937,
2010-11-22, 01:20:04,VALID,997.464,VALID,0,VALID,93.295,VALID,0,VALID,23.1921,VALID,149,VALID,0.566406,
2010-11-22, 01:21:04,VALID,997.443,VALID,0,VALID,93.2797,VALID,0,VALID,23.1921,VALID,149,VALID,0.467187,
2010-11-22, 01:22:04,VALID,997.454,VALID,0,VALID,93.2874,VALID,0,VALID,23.1921,VALID,154,VALID,0.542188,
2010-11-22, 01:23:04,VALID,997.448,VALID,0,VALID,93.2721,VALID,0,VALID,23.1726,VALID,154,VALID,0.598047,
2010-11-22, 01:24:04,VALID,997.447,VALID,0,VALID,93.2645,VALID,0,VALID,23.2134,VALID,154,VALID,0.604688,
2010-11-22, 01:25:04,VALID,997.418,VALID,0,VALID,93.2568,VALID,0,VALID,23.1921,VALID,154,VALID,0.342578,
2010-11-22, 01:26:04,VALID,997.419,VALID,0,VALID,93.234,VALID,0,VALID,23.1921,VALID,154,VALID,0.400391,
2010-11-22, 01:27:04,VALID,997.414,VALID,0,VALID,93.2263,VALID,0,VALID,23.1939,VALID,154,VALID,0.194922,
2010-11-22, 01:28:04,VALID,997.375,VALID,0,VALID,93.234,VALID,0,VALID,23.2134,VALID,154,VALID,0.0796875,
2010-11-22, 01:29:04,VALID,997.341,VALID,0,VALID,93.2263,VALID,0,VALID,23.1939,VALID,154,VALID,0,
2010-11-22, 01:30:04,VALID,997.319,VALID,0,VALID,93.2034,VALID,0,VALID,23.1744,VALID,154,VALID,0,
2010-11-22, 01:31:04,VALID,997.281,VALID,0,VALID,93.1958,VALID,0,VALID,23.1336,VALID,154,VALID,0,
2010-11-22, 01:32:04,VALID,997.275,VALID,0,VALID,93.1882,VALID,0,VALID,23.1549,VALID,154,VALID,0,
2010-11-22, 01:33:04,VALID,997.26,VALID,0,VALID,93.1958,VALID,0,VALID,23.1336,VALID,154,VALID,0,
2010-11-22, 01:34:04,VALID,997.208,VALID,0,VALID,93.1958,VALID,0,VALID,23.1354,VALID,154,VALID,0,
2010-11-22, 01:35:04,VALID,997.224,VALID,0,VALID,93.2034,VALID,0,VALID,23.1549,VALID,154,VALID,0.0269531,
2010-11-22, 01:36:04,VALID,997.184,VALID,0,VALID,93.1729,VALID,0,VALID,23.1141,VALID,154,VALID,0.183594,
2010-11-22, 01:37:04,VALID,997.196,VALID,0,VALID,93.1958,VALID,0,VALID,23.1354,VALID,154,VALID,0.139062,
2010-11-22, 01:38:04,VALID,997.219,VALID,0,VALID,93.1805,VALID,0,VALID,23.0751,VALID,154,VALID,0.303906,
2010-11-22, 01:39:04,VALID,997.253,VALID,0,VALID,93.1805,VALID,0,VALID,23.0769,VALID,154,VALID,0.248437,
2010-11-22, 01:40:04,VALID,997.224,VALID,0,VALID,93.2034,VALID,0,VALID,23.0361,VALID,154,VALID,0.432813,
2010-11-22, 01:41:04,VALID,997.237,VALID,0,VALID,93.2034,VALID,0,VALID,23.0573,VALID,154,VALID,0.371484,
2010-11-22, 01:42:04,VALID,997.223,VALID,0,VALID,93.1882,VALID,0,VALID,23.0573,VALID,154,VALID,0.302344,
2010-11-22, 01:43:04,VALID,997.207,VALID,0,VALID,93.1958,VALID,0,VALID,23.0573,VALID,154,VALID,0.344922,
2010-11-22, 01:44:04,VALID,997.216,VALID,0,VALID,93.1882,VALID,0,VALID,23.0361,VALID,154,VALID,0.314844,
2010-11-22, 01:45:04,VALID,997.197,VALID,0,VALID,93.2111,VALID,0,VALID,23.0361,VALID,154,VALID,0.292188,
2010-11-22, 01:46:04,VALID,997.225,VALID,0,VALID,93.2187,VALID,0,VALID,23.0166,VALID,154,VALID,0.202734,
2010-11-22, 01:47:04,VALID,997.221,VALID,0,VALID,93.2187,VALID,0,VALID,23.0378,VALID,154,VALID,0.162891,
2010-11-22, 01:48:04,VALID,997.266,VALID,0,VALID,93.2416,VALID,0,VALID,23.0166,VALID,154,VALID,0,
2010-11-22, 01:49:04,VALID,997.282,VALID,0,VALID,93.2416,VALID,0,VALID,23.0166,VALID,154,VALID,0,
2010-11-22, 01:50:04,VALID,997.282,VALID,0,VALID,93.2492,VALID,0,VALID,23.0183,VALID,154,VALID,0,
2010-11-22, 01:51:04,VALID,997.246,VALID,0,VALID,93.2645,VALID,0,VALID,22.9988,VALID,154,VALID,0.101563,
2010-11-22, 01:52:04,VALID,997.231,VALID,0,VALID,93.2874,VALID,0,VALID,22.9988,VALID,154,VALID,0.495313,
2010-11-22, 01:53:04,VALID,997.221,VALID,0,VALID,93.2721,VALID,0,VALID,22.9988,VALID,154,VALID,0.616016,
2010-11-22, 01:54:04,VALID,997.231,VALID,0,VALID,93.2797,VALID,0,VALID,22.9793,VALID,154,VALID,0.462109,
2010-11-22, 01:55:04,VALID,997.165,VALID,0,VALID,93.3255,VALID,0.112286,VALID,22.9988,VALID,154,VALID,0.360938,
2010-11-22, 01:56:04,VALID,997.217,VALID,0,VALID,93.3103,VALID,0,VALID,22.9793,VALID,154,VALID,0.228516,
2010-11-22, 01:57:04,VALID,997.184,VALID,0,VALID,93.3103,VALID,0,VALID,22.9988,VALID,154,VALID,0.1375,
2010-11-22, 01:58:04,VALID,997.209,VALID,0,VALID,93.3408,VALID,0,VALID,22.9581,VALID,154,VALID,0,
2010-11-22, 01:59:04,VALID,997.196,VALID,0,VALID,93.3484,VALID,0,VALID,22.9598,VALID,154,VALID,0,
2010-11-22, 02:00:04,VALID,997.203,VALID,0,VALID,93.3484,VALID,0,VALID,22.9598,VALID,154,VALID,0,
2010-11-22, 02:01:04,VALID,997.208,VALID,0,VALID,93.3484,VALID,0,VALID,22.919,VALID,154,VALID,0,
2010-11-22, 02:02:04,VALID,997.21,VALID,0,VALID,93.3637,VALID,0,VALID,22.8995,VALID,154,VALID,0,
2010-11-22, 02:03:04,VALID,997.208,VALID,0,VALID,93.3713,VALID,0,VALID,22.9013,VALID,154,VALID,0,
2010-11-22, 02:04:04,VALID,997.206,VALID,0,VALID,93.3713,VALID,0,VALID,22.8605,VALID,154,VALID,0,
2010-11-22, 02:05:04,VALID,997.231,VALID,0,VALID,93.3866,VALID,0,VALID,22.88,VALID,154,VALID,0,
2010-11-22, 02:06:04,VALID,997.215,VALID,0,VALID,93.4018,VALID,0,VALID,22.8818,VALID,154,VALID,0.124609,
2010-11-22, 02:07:04,VALID,997.261,VALID,0,VALID,93.4094,VALID,0,VALID,22.841,VALID,154,VALID,0,
2010-11-22, 02:08:04,VALID,997.286,VALID,0,VALID,93.4018,VALID,0,VALID,22.8215,VALID,154,VALID,0.00507812,
2010-11-22, 02:09:04,VALID,997.26,VALID,0,VALID,93.4171,VALID,0,VALID,22.8623,VALID,154,VALID,0.380078,
2010-11-22, 02:10:04,VALID,997.258,VALID,0,VALID,93.44,VALID,0,VALID,22.9013,VALID,154,VALID,0.180078,
2010-11-22, 02:11:04,VALID,997.259,VALID,0,VALID,93.4323,VALID,0,VALID,22.9208,VALID,154,VALID,0.358594,
2010-11-22, 02:12:04,VALID,997.245,VALID,0,VALID,93.44,VALID,0,VALID,22.9385,VALID,154,VALID,0.419141,
2010-11-22, 02:13:04,VALID,997.243,VALID,0,VALID,93.4552,VALID,0,VALID,22.9598,VALID,154,VALID,0.576953,
2010-11-22, 02:14:04,VALID,997.229,VALID,0,VALID,93.4705,VALID,0,VALID,22.9776,VALID,154,VALID,0.586719,
2010-11-22, 02:15:04,VALID,997.255,VALID,0,VALID,93.4705,VALID,0,VALID,23.0183,VALID,154,VALID,0.585547,
2010-11-22, 02:16:04,VALID,997.261,VALID,0,VALID,93.4934,VALID,0,VALID,23.0183,VALID,154,VALID,0.503516,
2010-11-22, 02:17:04,VALID,997.257,VALID,0,VALID,93.501,VALID,0,VALID,23.0166,VALID,154,VALID,0.474609,
2010-11-22, 02:18:04,VALID,997.246,VALID,0,VALID,93.4857,VALID,0,VALID,23.0166,VALID,154,VALID,0.562891,
2010-11-22, 02:19:04,VALID,997.25,VALID,0,VALID,93.4934,VALID,0,VALID,23.0361,VALID,79,VALID,0.678125,
2010-11-22, 02:20:04,VALID,997.214,VALID,0,VALID,93.5086,VALID,0.112286,VALID,23.0166,VALID,55,VALID,0.767187,
2010-11-22, 02:21:04,VALID,997.212,VALID,0,VALID,93.5239,VALID,0,VALID,22.9581,VALID,44,VALID,0.840625,
2010-11-22, 02:22:04,VALID,997.209,VALID,0,VALID,93.5086,VALID,0,VALID,22.9208,VALID,44,VALID,0.896875,
2010-11-22, 02:23:04,VALID,997.197,VALID,0,VALID,93.5544,VALID,0,VALID,22.8818,VALID,44,VALID,0.841406,
2010-11-22, 02:24:04,VALID,997.185,VALID,0,VALID,93.5468,VALID,0,VALID,22.8215,VALID,44,VALID,0.683984,
2010-11-22, 02:25:04,VALID,997.198,VALID,0,VALID,93.5391,VALID,0,VALID,22.7647,VALID,44,VALID,0.528125,
2010-11-22, 02:26:04,VALID,997.23,VALID,0,VALID,93.5544,VALID,0,VALID,22.7452,VALID,44,VALID,0.485156,
2010-11-22, 02:27:04,VALID,997.216,VALID,0,VALID,93.562,VALID,0,VALID,22.7257,VALID,44,VALID,0.521094,
2010-11-22, 02:28:04,VALID,997.176,VALID,0,VALID,93.5697,VALID,0,VALID,22.7045,VALID,44,VALID,0.491797,
2010-11-22, 02:29:04,VALID,997.186,VALID,0,VALID,93.5849,VALID,0,VALID,22.7452,VALID,38,VALID,0.827344,
2010-11-22, 02:30:04,VALID,997.154,VALID,0,VALID,93.5697,VALID,0,VALID,22.7257,VALID,35,VALID,0.728906,
2010-11-22, 02:31:04,VALID,997.09,VALID,0,VALID,93.5849,VALID,0,VALID,22.685,VALID,35,VALID,0.767578,
2010-11-22, 02:32:04,VALID,997.069,VALID,0,VALID,93.5926,VALID,0,VALID,22.6867,VALID,35,VALID,0.851172,
2010-11-22, 02:33:04,VALID,997.108,VALID,0,VALID,93.5926,VALID,0,VALID,22.6867,VALID,35,VALID,0.766797,
2010-11-22, 02:34:04,VALID,997.11,VALID,0,VALID,93.6002,VALID,0,VALID,22.6264,VALID,35,VALID,0.75625,
2010-11-22, 02:35:04,VALID,997.135,VALID,0,VALID,93.5849,VALID,0,VALID,22.6069,VALID,42,VALID,0.913281,
2010-11-22, 02:36:04,VALID,997.14,VALID,0,VALID,93.6078,VALID,0,VALID,22.6069,VALID,59,VALID,1.17461,
2010-11-22, 02:37:04,VALID,997.141,VALID,0,VALID,93.6231,VALID,0.112286,VALID,22.6069,VALID,59,VALID,1.16484,
2010-11-22, 02:38:04,VALID,997.149,VALID,0,VALID,93.6078,VALID,0,VALID,22.6282,VALID,65,VALID,1.11367,
2010-11-22, 02:39:04,VALID,997.138,VALID,0,VALID,93.6154,VALID,0,VALID,22.6087,VALID,68,VALID,0.950781,
2010-11-22, 02:40:04,VALID,997.127,VALID,0,VALID,93.6231,VALID,0,VALID,22.6069,VALID,76,VALID,0.965234,
2010-11-22, 02:41:04,VALID,997.111,VALID,0,VALID,93.6002,VALID,0,VALID,22.5874,VALID,76,VALID,1.08359,
2010-11-22, 02:42:04,VALID,997.093,VALID,0,VALID,93.6231,VALID,0,VALID,22.6087,VALID,76,VALID,0.6875,
2010-11-22, 02:43:04,VALID,997.065,VALID,0,VALID,93.6307,VALID,0,VALID,22.6282,VALID,76,VALID,0.709375,
2010-11-22, 02:44:04,VALID,997.057,VALID,0,VALID,93.6307,VALID,0.112286,VALID,22.6282,VALID,76,VALID,0.742969,
2010-11-22, 02:45:04,VALID,997.036,VALID,0,VALID,93.6231,VALID,0,VALID,22.5874,VALID,75,VALID,0.739844,
2010-11-22, 02:46:04,VALID,997.056,VALID,0,VALID,93.6307,VALID,0,VALID,22.6282,VALID,75,VALID,0.504687,
2010-11-22, 02:47:04,VALID,997.026,VALID,0,VALID,93.6383,VALID,0,VALID,22.6069,VALID,75,VALID,0.56875,
2010-11-22, 02:48:04,VALID,997.091,VALID,0,VALID,93.646,VALID,0,VALID,22.6069,VALID,75,VALID,0.338672,
2010-11-22, 02:49:04,VALID,997.035,VALID,0,VALID,93.6536,VALID,0.112286,VALID,22.5874,VALID,75,VALID,0.01875,
2010-11-22, 02:50:04,VALID,997.097,VALID,0,VALID,93.646,VALID,0,VALID,22.5892,VALID,75,VALID,0,
2010-11-22, 02:51:04,VALID,997.077,VALID,0,VALID,93.646,VALID,0,VALID,22.5892,VALID,75,VALID,0.0484375,
2010-11-22, 02:52:04,VALID,997.049,VALID,0,VALID,93.646,VALID,0,VALID,22.6087,VALID,75,VALID,0.280078,
2010-11-22, 02:53:04,VALID,997.041,VALID,0,VALID,93.6536,VALID,0,VALID,22.6069,VALID,75,VALID,0.458984,
2010-11-22, 02:54:04,VALID,997.045,VALID,0,VALID,93.6536,VALID,0,VALID,22.6069,VALID,75,VALID,0.517187,
2010-11-22, 02:55:04,VALID,997.018,VALID,0,VALID,93.6612,VALID,0,VALID,22.646,VALID,75,VALID,0.641016,
2010-11-22, 02:56:04,VALID,997.03,VALID,0,VALID,93.646,VALID,0,VALID,22.6672,VALID,75,VALID,0.783594,
2010-11-22, 02:57:04,VALID,997.038,VALID,0,VALID,93.6536,VALID,0,VALID,22.6672,VALID,75,VALID,0.653516,
2010-11-22, 02:58:04,VALID,997.039,VALID,0,VALID,93.6612,VALID,0,VALID,22.6655,VALID,75,VALID,0.562891,
2010-11-22, 02:59:04,VALID,997.029,VALID,0,VALID,93.6536,VALID,0,VALID,22.6867,VALID,75,VALID,0.333594,
2010-11-22, 03:00:04,VALID,997.021,VALID,0,VALID,93.6612,VALID,0,VALID,22.6655,VALID,75,VALID,0.368359,
2010-11-22, 03:01:04,VALID,996.978,VALID,0,VALID,93.6383,VALID,0,VALID,22.6867,VALID,75,VALID,0.379687,
2010-11-22, 03:02:04,VALID,997.002,VALID,0,VALID,93.6688,VALID,0,VALID,22.685,VALID,75,VALID,0.317187,
2010-11-22, 03:03:04,VALID,996.979,VALID,0,VALID,93.6765,VALID,0,VALID,22.685,VALID,75,VALID,0.261328,
2010-11-22, 03:04:04,VALID,996.986,VALID,0,VALID,93.6841,VALID,0.112286,VALID,22.7062,VALID,75,VALID,0.176953,
2010-11-22, 03:05:04,VALID,996.959,VALID,0,VALID,93.6688,VALID,0,VALID,22.7062,VALID,75,VALID,0.373047,
2010-11-22, 03:06:04,VALID,996.942,VALID,0,VALID,93.6688,VALID,0.112286,VALID,22.685,VALID,75,VALID,0.696875,
2010-11-22, 03:07:04,VALID,996.921,VALID,0,VALID,93.6765,VALID,0,VALID,22.7045,VALID,75,VALID,0.769141,
2010-11-22, 03:08:04,VALID,996.951,VALID,0,VALID,93.6765,VALID,0,VALID,22.685,VALID,75,VALID,0.726563,
2010-11-22, 03:09:04,VALID,996.959,VALID,0,VALID,93.6688,VALID,0,VALID,22.7062,VALID,75,VALID,0.493359,
2010-11-22, 03:10:04,VALID,996.921,VALID,0,VALID,93.6917,VALID,0,VALID,22.7257,VALID,75,VALID,0.275781,
2010-11-22, 03:11:04,VALID,996.942,VALID,0,VALID,93.6765,VALID,0,VALID,22.7045,VALID,75,VALID,0.283984,
2010-11-22, 03:12:04,VALID,996.918,VALID,0,VALID,93.6917,VALID,0,VALID,22.7257,VALID,75,VALID,0.485156,
2010-11-22, 03:13:04,VALID,996.923,VALID,0,VALID,93.6765,VALID,0,VALID,22.7257,VALID,75,VALID,0.603125,
2010-11-22, 03:14:04,VALID,996.892,VALID,0,VALID,93.6765,VALID,0,VALID,22.7045,VALID,88,VALID,0.708594,
2010-11-22, 03:15:04,VALID,996.885,VALID,0,VALID,93.6841,VALID,0,VALID,22.7045,VALID,88,VALID,0.750391,
2010-11-22, 03:16:04,VALID,996.907,VALID,0,VALID,93.6765,VALID,0,VALID,22.7257,VALID,88,VALID,0.739062,
2010-11-22, 03:17:04,VALID,996.896,VALID,0,VALID,93.6536,VALID,0,VALID,22.7045,VALID,88,VALID,0.698828,
2010-11-22, 03:18:04,VALID,996.887,VALID,0,VALID,93.6688,VALID,0,VALID,22.7045,VALID,88,VALID,0.655859,
2010-11-22, 03:19:04,VALID,996.912,VALID,0,VALID,93.6765,VALID,0,VALID,22.7045,VALID,88,VALID,0.319922,
2010-11-22, 03:20:04,VALID,996.982,VALID,0,VALID,93.6612,VALID,0,VALID,22.7257,VALID,88,VALID,0.00585938,
2010-11-22, 03:21:04,VALID,996.98,VALID,0,VALID,93.6536,VALID,0,VALID,22.7257,VALID,88,VALID,0.15625,
2010-11-22, 03:22:04,VALID,996.978,VALID,0,VALID,93.6841,VALID,0,VALID,22.7452,VALID,88,VALID,0.3375,
2010-11-22, 03:23:04,VALID,996.992,VALID,0,VALID,93.6536,VALID,0,VALID,22.7647,VALID,88,VALID,0.298047,
2010-11-22, 03:24:04,VALID,996.994,VALID,0,VALID,93.6688,VALID,0,VALID,22.7647,VALID,117,VALID,0.492578,
2010-11-22, 03:25:04,VALID,996.954,VALID,0,VALID,93.6612,VALID,0,VALID,22.763,VALID,118,VALID,0.380078,
2010-11-22, 03:26:04,VALID,996.953,VALID,0,VALID,93.6383,VALID,0,VALID,22.7647,VALID,118,VALID,0,
2010-11-22, 03:27:04,VALID,996.919,VALID,0,VALID,93.6536,VALID,0,VALID,22.8037,VALID,118,VALID,0,
2010-11-22, 03:28:04,VALID,996.967,VALID,0,VALID,93.6612,VALID,0.112286,VALID,22.7825,VALID,118,VALID,0.117578,
2010-11-22, 03:29:04,VALID,996.954,VALID,0,VALID,93.646,VALID,0,VALID,22.7825,VALID,118,VALID,0,
2010-11-22, 03:30:04,VALID,996.984,VALID,0,VALID,93.646,VALID,0,VALID,22.7842,VALID,118,VALID,0.0808594,
2010-11-22, 03:31:04,VALID,996.965,VALID,0,VALID,93.6383,VALID,0.112286,VALID,22.7825,VALID,118,VALID,0.285547,
2010-11-22, 03:32:04,VALID,996.978,VALID,0,VALID,93.6383,VALID,0,VALID,22.8037,VALID,115,VALID,0.391406,
2010-11-22, 03:33:04,VALID,996.97,VALID,0,VALID,93.6688,VALID,0,VALID,22.7825,VALID,115,VALID,0.377734,
2010-11-22, 03:34:04,VALID,996.956,VALID,0,VALID,93.6612,VALID,0,VALID,22.8037,VALID,115,VALID,0.105469,
2010-11-22, 03:35:04,VALID,996.959,VALID,0,VALID,93.6383,VALID,0,VALID,22.8037,VALID,115,VALID,0.355469,
2010-11-22, 03:36:04,VALID,996.97,VALID,0,VALID,93.646,VALID,0,VALID,22.7825,VALID,115,VALID,0,
2010-11-22, 03:37:04,VALID,996.956,VALID,0,VALID,93.6383,VALID,0,VALID,22.7842,VALID,115,VALID,0,
2010-11-22, 03:38:04,VALID,996.95,VALID,0,VALID,93.6383,VALID,0,VALID,22.7842,VALID,115,VALID,0,
2010-11-22, 03:39:04,VALID,996.966,VALID,0,VALID,93.6536,VALID,0,VALID,22.763,VALID,115,VALID,0.0015625,
2010-11-22, 03:40:04,VALID,996.966,VALID,0,VALID,93.6383,VALID,0,VALID,22.763,VALID,115,VALID,0.250391,
2010-11-22, 03:41:04,VALID,996.934,VALID,0,VALID,93.646,VALID,0,VALID,22.7842,VALID,115,VALID,0.337109,
2010-11-22, 03:42:04,VALID,996.988,VALID,0,VALID,93.646,VALID,0,VALID,22.7842,VALID,115,VALID,0.621875,
2010-11-22, 03:43:04,VALID,996.986,VALID,0,VALID,93.6383,VALID,0,VALID,22.7842,VALID,118,VALID,0.68125,
2010-11-22, 03:44:04,VALID,996.993,VALID,0,VALID,93.6231,VALID,0,VALID,22.8037,VALID,118,VALID,0.531641,
2010-11-22, 03:45:04,VALID,996.987,VALID,0,VALID,93.6383,VALID,0,VALID,22.8232,VALID,118,VALID,0.544141,
2010-11-22, 03:46:04,VALID,996.978,VALID,0,VALID,93.6307,VALID,0,VALID,22.8232,VALID,118,VALID,0.537109,